Voltar ao catálogo

IUS R/B(1)

AtivoHEO
NORAD 21640·ROCKET BODY·🇺🇸 United States

Lançado Aug 2, 1991 de Cape Canaveral Space Force Station

Loading…

Próximas Passagens (próximas 24 horas)

TLE

AtualizadoSource: Space-Track

Época: Sep 14, 2026, 06:50 UTC

1 21640U 91054C   26257.28521740  .00001905  00000-0  53401-3 0  9994
2 21640  26.7518 345.1728 6630084 304.4193   9.7673  3.13081579342812

Acompanhe IUS R/B(1) em tempo real com AllMySat

Download on the App Store